Miscellaneous Local Product
Issued by NWS North Platte, NE

Home | Current Version | Previous Version | Graphics & Text | Print | Product List | Glossary On
Versions: 1 2 3 4 5 6 7 8 9 10 11 12 13 14 15 16 17 18 19 20 21 22 23 24 25 26 27 28 29 30 31 32 33 34 35 36 37 38 39 40 41 42 43 44 45 46 47 48 49 50
000
AXUS43 KLBF 231110
MISLBF


WESTERN AND NORTH CENTRAL NEBRASKA HOURLY WEATHER ROUNDUP
NATIONAL WEATHER SERVICE NORTH PLATTE NE
600 AM CDT THU OCT 23 2014

***STATIONS NOT REPORTING VARIABLES SUCH AS SKY/WEATHER OR
PRESSURE ARE PROVIDED BY THE NEBRASKA DEPARTMENT OF
ROADS...RAWS...AND APRS NETWORKS...AND ARE NOT UNDER
NATIONAL WEATHER SERVICE QUALITY CONTROL***

...OBSERVATIONS IN AND NEAR THE EASTERN PANHANDLE OF NEBRASKA...

CITY           SKY/WX    TMP DP  RH WIND       PRES   REMARKS
PINE RIDGE     CLEAR     27  23  85 CALM      30.03S
CHADRON        CLEAR     32  25  75 SW8       30.04F WCI  25
ALLIANCE       CLEAR     27  22  81 W7        30.07F WCI  19
SIDNEY         CLEAR     35  31  85 W5        30.11F WCI  31
WHITECLAY        N/A     29  25  84 SE7         N/A  WCI  22
RUSHVILLE        N/A     24  23  96 W8          N/A  WCI  15
CRESCENT LAKE    N/A     40  35  82 S3G12       N/A
LISCO            N/A     32  28  86 CALM        N/A
BIG SPRINGS      N/A     37  33  87 CALM        N/A
LEWELLEN         N/A     30  28  92 CALM        N/A
$$

...OBSERVATIONS IN NORTH CENTRAL NEBRASKA...

CITY           SKY/WX    TMP DP  RH WIND       PRES   REMARKS
VALENTINE      CLEAR     35  33  92 SW5       30.03F WCI  31
THEDFORD       DRZL/FOG  51  50  99 W6        30.07F VSB 1/4
AINSWORTH      CLEAR     43  42  97 SW6       30.04S
O`NEILL        FOG       38  38 100 SW3       30.04F VSB 1/2
ORD            FOG       38  38 100 CALM      30.06R VSB 1/4
BROKEN BOW     FOG       40  39  97 CALM      30.07R VSB 1/2
BROWNLEE         N/A     46  46  98 SW8         N/A
SPRINGVIEW       N/A     31  30  94 CALM        N/A
BREWSTER         N/A     35  35  99 NW3         N/A
ROSE             N/A     43  43  99 CALM        N/A
NEWPORT          N/A     38  38  99 S3          N/A
SARGENT          N/A     37  36  97 CALM        N/A
COMSTOCK         N/A     42  42  99 CALM        N/A
CHAMBERS         N/A     39  38  99 CALM        N/A
EWING            N/A     36  35  96 CALM        N/A
$$

...OBSERVATIONS IN SOUTHWEST NEBRASKA AND FAR NORTHEAST COLORADO...

CITY           SKY/WX    TMP DP  RH WIND       PRES   REMARKS
WRAY           FAIR      39  34  81 W5        30.11F
HOLYOKE        FAIR      41  34  75 W6        30.10F
IMPERIAL       CLEAR     39  31  72 W5        30.10F
OGALLALA       CLEAR     34  32  93 W5        30.09F WCI  30
NORTH PLATTE   FOG       47  46  97 W6        30.09S VSB 1/4
MCCOOK         FOG       45  45 100 SW5       30.10S VSB<1/4
LEXINGTON      FOG       48  47  97 NW3       30.08S VSB 1/4
PAXTON           N/A     38  34  86 CALM        N/A
SUTHERLAND       N/A     32  28  86 CALM        N/A
BRADY            N/A     44  42  94 CALM        N/A
GOTHENBURG       N/A     49  46  91 CALM        N/A
CALLAWAY         N/A     41  40  96 CALM        N/A
$$

...SOME WEATHER OBSERVATIONS FROM AROUND THE REGION...

CITY           SKY/WX    TMP DP  RH WIND       PRES   REMARKS
DENVER         PTCLDY    44  37  76 SW8       30.15S
LARAMIE        MOCLDY    38  26  62 W10       30.19S WCI  31
CHEYENNE       CLEAR     38  29  70 NW5       30.15S WCI  34
SCOTTSBLUFF    CLEAR     32  29  88 CALM      30.09F
RAPID CITY     CLEAR     34  27  75 CALM      29.98S
PIERRE         CLEAR     37  32  82 CALM      29.96S
WINNER         FAIR      50  41  71 SW13      30.00S
SIOUX FALLS    FOG       44  43  96 CALM      30.00F VSB 1/16
OMAHA          CLOUDY    62  59  90 S5        30.03S
GRAND ISLAND   FOG       45  44  97 W5        30.07R VSB 1/4
KANSAS CITY    CLOUDY    57  56  96 S9        30.09F
WICHITA        CLOUDY    61  58  90 S9        30.08S
HAYS           CLOUDY    54  48  82 CALM      30.07R VSB 1/2
LIBERAL        CLEAR     57  52  82 CALM      30.07S
GOODLAND       CLEAR     42  40  92 W5        30.12S
$$



USA.gov is the U.S. government's official web portal to all federal, state and local government web resources and services.